{"data":{"norad_id":69518,"epoch":"2026-09-20T04:11:43.422432Z","epoch_age_seconds":53591,"freshness":"FRESH","line1":"1 69518U 26133L   26263.17480813  .00024568  00000+0  73589-3 0  9994","line2":"2 69518  53.1581 231.2671 0001562 101.3057 258.8121 15.34399201 16716","mean_motion":15.34399201,"eccentricity":0.0001562,"inclination_deg":53.1581,"raan_deg":231.2671,"arg_perigee_deg":101.3057,"mean_anomaly_deg":258.8121,"bstar":0.00073589,"rev_number":1671,"period_min":93.847806950207,"perigee_km":461.63707538805,"apogee_km":463.77415462098,"semimajor_km":6840.8426150045,"source":"CELESTRAK","updated_at":"2026-09-20T09:00:44.212388Z"}}